When you browse on this site, cookies collect data to enhance your experience and personalize the content and advertising you see.
Visit our Privacy Policy to learn more. By continuing to use the site, you agree to this use of cookies and data.
  • In Norway
  • List of Countries
  • For 7 days
  • Water Temperature
  • Satellite Maps
  • Weather Map
  • Weather Widgets
  • user-avatar
    Login

    Hourly Weather Rzeplin

    Today, 18 December, Tuesday

    Time Temperature Precipitation Wind Pressure Humidity
    00:00 -3°C° 0 mm 1 mps 747 mmHg 91%
    01:00 -3°C° 0 mm 1 mps 748 mmHg 92%
    02:00 -3°C° 0 mm 1 mps 748 mmHg 93%
    03:00 -3°C° 0 mm 1 mps 748 mmHg 93%
    04:00 -3°C° 0 mm 1 mps 748 mmHg 93%
    05:00 -3°C° 0 mm 1 mps 748 mmHg 93%
    06:00 -4°C° 0 mm 0 mps 748 mmHg 94%
    07:00 -4°C° 0 mm 0 mps 748 mmHg 94%
    08:00 -3°C° 0 mm 0 mps 749 mmHg 92%
    09:00 -2°C° 0 mm 0 mps 749 mmHg 91%
    10:00 -1°C° 0 mm 0 mps 749 mmHg 89%
    11:00 -1°C° 0 mm 0 mps 749 mmHg 88%
    12:00 -1°C° 0 mm 0 mps 749 mmHg 88%
    13:00 +1°C° 0 mm 1 mps 749 mmHg 87%
    14:00 -1°C° 0 mm 0 mps 749 mmHg 89%
    15:00 -2°C° 0 mm 0 mps 749 mmHg 90%
    16:00 -2°C° 0 mm 0 mps 749 mmHg 92%
    17:00 -2°C° 0 mm 0 mps 749 mmHg 92%
    18:00 -3°C° 0 mm 0 mps 749 mmHg 92%
    19:00 -2°C° 0 mm 1 mps 749 mmHg 92%
    20:00 -2°C° 0 mm 1 mps 750 mmHg 92%
    21:00 -2°C° 0 mm 1 mps 750 mmHg 93%
    22:00 -3°C° 0 mm 1 mps 750 mmHg 93%
    23:00 -3°C° 0 mm 1 mps 750 mmHg 93%

    Tomorrow, 19 December, Wednesday

    Time Temperature Precipitation Wind Pressure Humidity
    00:00 -4°C° 0 mm 1 mps 750 mmHg 93%
    01:00 -4°C° 0 mm 1 mps 750 mmHg 94%
    02:00 -4°C° 0 mm 1 mps 750 mmHg 94%
    03:00 -7°C° 0 mm 2 mps 749 mmHg 94%
    04:00 -7°C° 0 mm 2 mps 749 mmHg 94%
    05:00 -7°C° 0 mm 2 mps 749 mmHg 93%
    06:00 -7°C° 0 mm 2 mps 749 mmHg 93%
    07:00 -7°C° 0 mm 2 mps 749 mmHg 92%
    08:00 -7°C° 0 mm 2 mps 749 mmHg 89%
    09:00 -7°C° 0 mm 3 mps 749 mmHg 87%
    10:00 -6°C° 0 mm 3 mps 749 mmHg 84%
    11:00 -5°C° 0 mm 3 mps 749 mmHg 83%
    12:00 -5°C° 0 mm 3 mps 748 mmHg 82%
    13:00 -4°C° 0 mm 3 mps 748 mmHg 81%
    14:00 -5°C° 0 mm 3 mps 748 mmHg 84%
    15:00 -6°C° 0 mm 3 mps 748 mmHg 87%
    16:00 -7°C° 0 mm 3 mps 748 mmHg 90%
    17:00 -7°C° 0 mm 3 mps 747 mmHg 90%
    18:00 -7°C° 0 mm 3 mps 747 mmHg 90%
    19:00 -7°C° 0 mm 3 mps 747 mmHg 90%
    20:00 -7°C° 0 mm 3 mps 747 mmHg 89%
    21:00 -7°C° 0 mm 3 mps 747 mmHg 88%
    22:00 -7°C° 0 mm 3 mps 747 mmHg 87%
    23:00 -7°C° 0 mm 3 mps 746 mmHg 86%

    Day after tomorrow, 20 December, Thursday

    Time Temperature Precipitation Wind Pressure Humidity
    00:00 -7°C° 0 mm 3 mps 746 mmHg 85%
    01:00 -7°C° 0 mm 3 mps 746 mmHg 84%
    02:00 -7°C° 0 mm 3 mps 746 mmHg 83%
    03:00 -7°C° 0 mm 3 mps 745 mmHg 82%
    04:00 -7°C° 0 mm 3 mps 745 mmHg 81%
    05:00 -7°C° 0 mm 3 mps 745 mmHg 80%
    06:00 -6°C° 0 mm 3 mps 745 mmHg 80%
    07:00 -6°C° 0 mm 3 mps 745 mmHg 79%
    08:00 -5°C° 0 mm 3 mps 745 mmHg 77%
    09:00 -4°C° 0 mm 3 mps 745 mmHg 75%
    10:00 -4°C° 0 mm 3 mps 745 mmHg 73%
    11:00 -2°C° 0 mm 3 mps 745 mmHg 73%
    12:00 -1°C° 0 mm 3 mps 744 mmHg 73%
    13:00 -1°C° 0 mm 3 mps 744 mmHg 73%
    14:00 -1°C° 0 mm 3 mps 744 mmHg 76%
    15:00 -2°C° 0 mm 3 mps 744 mmHg 78%
    16:00 -2°C° 0 mm 3 mps 744 mmHg 81%
    17:00 -2°C° 0.1 mm 3 mps 744 mmHg 82%
    18:00 -2°C° 0.1 mm 3 mps 744 mmHg 83%
    19:00 -2°C° 0.1 mm 2 mps 744 mmHg 84%
    20:00 -2°C° 0.2 mm 3 mps 744 mmHg 86%
    21:00 -2°C° 0.2 mm 3 mps 744 mmHg 88%
    22:00 -2°C° 0.2 mm 3 mps 744 mmHg 89%
    23:00 -2°C° 0.1 mm 3 mps 744 mmHg 90%

    21 December, Friday

    Time Temperature Precipitation Wind Pressure Humidity
    00:00 -2°C° 0.1 mm 3 mps 744 mmHg 90%
    01:00 -2°C° 0.1 mm 3 mps 744 mmHg 90%
    02:00 -2°C° 0.1 mm 3 mps 744 mmHg 90%
    03:00 -2°C° 0.1 mm 3 mps 744 mmHg 90%
    04:00 -2°C° 0.1 mm 3 mps 743 mmHg 90%
    05:00 -2°C° 0.2 mm 3 mps 743 mmHg 90%
    06:00 -2°C° 0.2 mm 3 mps 743 mmHg 91%
    07:00 -1°C° 0.2 mm 3 mps 743 mmHg 91%
    08:00 -1°C° 0.4 mm 3 mps 743 mmHg 91%
    09:00 -2°C° 0.4 mm 4 mps 743 mmHg 91%
    10:00 -2°C° 0.4 mm 4 mps 743 mmHg 91%
    11:00 -2°C° 0.1 mm 4 mps 743 mmHg 91%
    12:00 -1°C° 0.1 mm 4 mps 743 mmHg 91%
    13:00 -1°C° 0.1 mm 4 mps 743 mmHg 90%
    14:00 -2°C° 0 mm 4 mps 742 mmHg 90%
    15:00 -2°C° 0 mm 4 mps 742 mmHg 89%
    16:00 -3°C° 0 mm 4 mps 742 mmHg 89%
    17:00 -2°C° 0 mm 4 mps 742 mmHg 87%
    18:00 -2°C° 0 mm 5 mps 742 mmHg 86%
    19:00 -2°C° 0 mm 5 mps 741 mmHg 85%
    20:00 -1°C° 0.1 mm 5 mps 741 mmHg 85%
    21:00 -2°C° 0.1 mm 6 mps 740 mmHg 84%
    22:00 -1°C° 0.1 mm 6 mps 740 mmHg 84%
    23:00 -1°C° 0.5 mm 7 mps 739 mmHg 84%

    22 December, Saturday

    Time Temperature Precipitation Wind Pressure Humidity
    00:00 -1°C° 0.5 mm 7 mps 738 mmHg 85%
    01:00 -1°C° 0.5 mm 7 mps 737 mmHg 85%
    02:00 -1°C° 0.8 mm 7 mps 737 mmHg 86%
    03:00 -1°C° 0.8 mm 7 mps 736 mmHg 86%
    04:00 -1°C° 0.8 mm 7 mps 736 mmHg 87%
    05:00 -1°C° 0.2 mm 7 mps 736 mmHg 88%
    06:00 0°C° 0.2 mm 7 mps 736 mmHg 88%
    07:00 0°C° 0.2 mm 7 mps 736 mmHg 89%
    08:00 0°C° 0.1 mm 7 mps 737 mmHg 89%
    09:00 0°C° 0.1 mm 7 mps 737 mmHg 89%
    10:00 +1°C° 0.1 mm 6 mps 738 mmHg 90%
    11:00 +2°C° 0 mm 6 mps 738 mmHg 89%
    12:00 +2°C° 0 mm 6 mps 738 mmHg 89%
    13:00 +2°C° 0 mm 5 mps 738 mmHg 89%
    14:00 +2°C° 0 mm 5 mps 738 mmHg 88%
    15:00 +1°C° 0 mm 5 mps 738 mmHg 87%
    16:00 +1°C° 0 mm 5 mps 737 mmHg 86%
    17:00 +1°C° 0.2 mm 6 mps 737 mmHg 87%
    18:00 +1°C° 0.2 mm 6 mps 737 mmHg 88%
    19:00 +2°C° 0.2 mm 6 mps 736 mmHg 89%
    20:00 +2°C° 0.3 mm 6 mps 736 mmHg 89%
    21:00 +2°C° 0.3 mm 6 mps 736 mmHg 89%
    22:00 +2°C° 0.3 mm 6 mps 736 mmHg 90%
    23:00 +2°C° 0.2 mm 6 mps 735 mmHg 90%

    23 December, Sunday

    Time Temperature Precipitation Wind Pressure Humidity
    00:00 +2°C° 0.2 mm 6 mps 735 mmHg 90%
    01:00 +2°C° 0.2 mm 6 mps 735 mmHg 91%
    02:00 +2°C° 0.3 mm 6 mps 736 mmHg 91%
    03:00 +2°C° 0.3 mm 6 mps 736 mmHg 91%
    04:00 +2°C° 0.3 mm 6 mps 736 mmHg 91%
    05:00 +2°C° 0.5 mm 6 mps 737 mmHg 90%
    06:00 +2°C° 0.5 mm 6 mps 737 mmHg 90%
    07:00 +2°C° 0.5 mm 7 mps 738 mmHg 90%
    08:00 +2°C° 0 mm 6 mps 738 mmHg 89%
    09:00 +2°C° 0 mm 6 mps 739 mmHg 89%
    10:00 +2°C° 0 mm 6 mps 739 mmHg 88%
    11:00 +2°C° 0 mm 6 mps 740 mmHg 87%
    12:00 +2°C° 0 mm 6 mps 740 mmHg 85%
    13:00 +2°C° 0 mm 6 mps 740 mmHg 84%
    14:00 +2°C° 0.1 mm 6 mps 740 mmHg 84%
    15:00 +2°C° 0.1 mm 5 mps 740 mmHg 84%
    16:00 +1°C° 0.1 mm 5 mps 740 mmHg 85%
    17:00 +1°C° 0.3 mm 6 mps 740 mmHg 85%
    18:00 +1°C° 0.3 mm 6 mps 740 mmHg 84%
    19:00 +1°C° 0.3 mm 6 mps 741 mmHg 84%
    20:00 +2°C° 0.3 mm 7 mps 741 mmHg 85%
    21:00 +2°C° 0.3 mm 7 mps 741 mmHg 85%
    22:00 +2°C° 0.3 mm 7 mps 741 mmHg 86%
    23:00 +2°C° 0.2 mm 7 mps 742 mmHg 87%
    Show more